Location: Overspoor
(51.4747°N, 5.6641°E)
Time: 21:19:56
(UTC+02:00)

YUBILEINY - Pass Details

Date: 05 July 2022
Orbit: 1478 x 1509 km, 82.5° (Epoch: 08 August)

Event Time Altitude Azimuth Distance (km) Brightness Sun altitude
Rises 02:33:40 0° 346° (NNW) 4,657 ? -14.9°
Reaches altitude 10° 02:38:23 10° 8° (N) 3,667 ? -14.7°
Maximum altitude 02:43:14 15° 42° (NE) 3,239 ? -14.5°
Drops below altitude 10° 02:48:03 10° 76° (ENE) 3,647 ? -14.3°
Sets 02:52:41 0° 98° (E) 4,617 ? -14.1°
